Location: Al Mulaqqa?ah
(24.1833°N, 32.8833°E)
Time: 21:03:30
(UTC+00:00)

Atlas Centaur 2 - Pass Details

Date: 26 September 2021
Orbit: 459 x 1308 km, 30.4° (Epoch: 23 October)

Event Time Altitude Azimuth Distance (km) Brightness Sun altitude
Rises 16:49:21 0° 279° (W) 4,089 7.6 -16.5°
Reaches altitude 10° 16:52:12 10° 283° (WNW) 3,201 6.5 -17.1°
Maximum altitude 17:00:19 56° 0° (N) 1,514 3.5 -19.0°
Enters shadow 17:05:22 26° 68° (ENE) 2,333 4.0 -20.1°
